Total_Precipitation_Accumulation
0.71 0.62 0.52 0.39 0.43 0.46 0.44 0.34 0.36 0.27 0.19 0.15 0.20 0.28 0.31 0.27 0.16 0.10 0.05 0.05 0.04 0.04
1.05 0.84 0.85 0.66 0.53 0.55 0.52 0.41 0.38 0.29 0.13 0.11 0.12 0.12 0.20 0.21 0.24 0.23 0.16 0.12 0.10 0.06
0.64 0.46 0.44 0.41 0.46 0.41 0.42 0.32 0.29 0.26 0.13 0.10 0.11 0.17 0.16 0.11 0.13 0.12 0.12 0.13 0.11 0.08
0.20 0.15 0.13 0.15 0.17 0.13 0.13 0.17 0.16 0.14 0.15 0.12 0.11 0.12 0.10 0.08 0.07 0.07 0.08 0.08 0.05 0.06
0.03 0.02 0.02 0.02 0.02 0.01 0.01 0.00 0.01 0.00 0.01 0.01 0.01 0.04 0.04 0.06 0.06 0.06 0.05 0.05 0.04 0.03
0.00 0.00 0.00 0.00 0.00 0.00 0.00 0.00 0.00 0.00 0.00 0.00 0.00 0.00 0.00 0.00 0.01 0.02 0.03 0.04 0.04 0.04
0.00 0.00 0.00 0.00 0.00 0.00 0.00 0.00 0.00 0.00 0.00 0.00 0.00 0.00 0.00 0.00 0.00 0.00 0.00 0.01 0.02 0.02
0.00 0.00 0.00 0.00 0.00 0.00 0.00 0.00 0.00 0.00 0.00 0.00 0.00 0.00 0.00 0.00 0.00 0.00 0.00 0.00 0.00 0.00
0.00 0.00 0.00 0.00 0.00 0.00 0.00 0.00 0.00 0.00 0.00 0.00 0.00 0.00 0.00 0.00 0.00 0.00 0.00 0.00 0.00 0.00
0.00 0.00 0.00 0.00 0.00 0.00 0.00 0.00 0.00 0.00 0.00 0.00 0.00 0.00 0.00 0.00 0.00 0.00 0.00 0.00 0.00 0.00
0.00 0.00 0.00 0.00 0.00 0.00 0.00 0.00 0.00 0.00 0.00 0.00 0.00 0.00 0.00 0.00 0.00 0.00 0.00 0.00 0.00 0.00
0.00 0.00 0.00 0.00 0.00 0.00 0.00 0.00 0.00 0.00 0.00 0.00 0.00 0.00 0.00 0.00 0.00 0.00 0.00 0.00 0.00 0.00
0.00 0.00 0.00 0.00 0.00 0.00 0.00 0.00 0.00 0.00 0.00 0.00 0.00 0.00 0.00 0.00 0.00 0.00 0.00 0.00 0.00 0.01
0.00 0.00 0.00 0.00 0.00 0.00 0.00 0.00 0.00 0.00 0.00 0.00 0.00 0.00 0.01 0.01 0.01 0.00 0.01 0.01 0.00 0.00